Location: Asheville, NC
(35.6000°N, 82.5500°W)
Time: 23:13:10

Vanguard 2 Rocket - Pass Details

Date: 15 March 2018
Orbit: 554 x 3327 km, 32.9° (Epoch: 20 March)

Event Time Altitude Azimuth Distance (km) Brightness Sun altitude
Rises 00:17:33 0° 269° (W) 3,832 10.4 -51.6°
Enters shadow 00:17:56 - 267° (W) 3,737 10.3 -51.6°
Reaches altitude 10° 00:20:24 10° 255° (WSW) 3,198 - -51.9°
Maximum altitude 00:26:49 25° 204° (SSW) 2,927 - -52.6°
Drops below altitude 10° 00:36:21 10° 156° (SSE) 4,909 - -53.5°
Sets 00:42:10 0° 146° (SE) 6,411 - -54.0°
